weather.gov     
National Weather Service

Terminal Aerodrome Forecast
NWS Homepage
This page is being discontinued on March 12, 2014.
The same data is available at this site. Please update your bookmarks.
Thank you, and we apologize for the inconvenience.
Please send an email to SR-SRH.Webmaster@noaa.gov with any concerns.


Current Version
Previous Version:    01  02  03  04  05  06  07  08  09  10  11  12  13  14  15  16  17  18  19  20  21  22  23  24  25  26  27  28  29  
[Printable]
387
FTUS45 KSLC 221622 AAB
TAFLGU
TAF AMD
KLGU 221622Z 2216/2312 21010G18KT P6SM -RA BKN025 BKN040
     FM222300 33011G18KT 1SM -SN BR OVC010
     FM230100 29008KT 4SM -SHSN BR BKN015
     FM230500 32005KT 5SM -SHSN BR BKN025=


387
FTUS45 KSLC 221622 AAB
TAFLGU
TAF AMD
KLGU 221622Z 2216/2312 21010G18KT P6SM -RA BKN025 BKN040
     FM222300 33011G18KT 1SM -SN BR OVC010
     FM230100 29008KT 4SM -SHSN BR BKN015
     FM230500 32005KT 5SM -SHSN BR BKN025=




U.S. Dept. of Commerce
NOAA National Weather Service
1325 East West Highway
Silver Spring, MD 20910
E-mail: w-nws.webmaster@noaa.gov
Page last modified: May 16, 2007
NATIONAL WEATHER SERVICE: for Safety, for Work, for Fun - FOR LIFE